{"data":{"norad_id":56799,"epoch":"2026-09-20T22:08:48.095232Z","epoch_age_seconds":81288,"freshness":"FRESH","line1":"1 56799U 23078AJ  26263.92277888 -.00000072  00000+0  17673-5 0  9994","line2":"2 56799  69.9996 212.2224 0002868 271.4604  88.6227 14.98329714181921","mean_motion":14.98329714,"eccentricity":0.0002868,"inclination_deg":69.9996,"raan_deg":212.2224,"arg_perigee_deg":271.4604,"mean_anomaly_deg":88.6227,"bstar":1.7673e-6,"rev_number":18192,"period_min":96.107017470522,"perigee_km":570.06345980119,"apogee_km":574.05009095074,"semimajor_km":6950.193775376,"source":"CELESTRAK","updated_at":"2026-09-21T09:00:33.509882Z"}}